Regional Weather Roundup
Issued by NWS

Home | Current Version | Previous Version | Text Only | Print | Product List | Glossary On
Versions: 1 2 3 4 5 6 7 8 9 10 11 12 13 14 15 16 17 18 19 20 21 22 23 24 25 26 27 28 29 30 31 32 33 34 35 36 37 38 39 40 41 42 43 44 45 46 47 48 49 50
000
ASUS42 KTBW 250016
RWRFL
FLORIDA REGIONAL WEATHER ROUNDUP
NATIONAL WEATHER SERVICE TAMPA BAY RUSKIN FL
700 PM EST FRI FEB 24 2017

NOTE: "FAIR" INDICATES FEW OR NO CLOUDS BELOW 12,000 FEET WITH NO
SIGNIFICANT WEATHER AND/OR OBSTRUCTIONS TO VISIBILITY.

FLZ001>010-012>015-112-114-115-250100-
PANHANDLE FLORIDA

CITY           SKY/WX    TMP DP  RH WIND       PRES   REMARKS
PENSACOLA      CLEAR     69  65  86 S7        29.82S
PENSACOLA NAS  PTCLDY    68  65  90 S6        29.82S
MILTON NAS     PTCLDY    69  64  84 S10       29.83
CRESTVIEW      CLEAR     70  61  73 S9        29.84R
DUKE FIELD     PTCLDY    69  63  79 S8        29.82F
VALPARAISO     PTCLDY    68  66  94 S7        29.84S
MARY ESTHER    MOCLDY    68  57  67 S7        29.82F
TRI COUNTY     FAIR      72  58  61 SW5       29.83R
PANAMA CITY    FAIR      68  62  81 S6        29.83S
TYNDALL AFB    CLEAR     67  65  91 W5        29.84F
APALACHICOLA   CLEAR     69  65  86 SW3       29.84S

STATION/POSITION SKY/WX   TEMP    WIND        PRES    WAVE   SWELL
                          AIR SEA DIR/SP/G            HT/PER HT/PER
                          (F)     (DEG/KT/KT) (MB)    (FT/S) (FT/S)
30.1N   87.6W              70 70  150/  4/  6 1010.0    1
28.8N   86.0W              73 72              1010.9    1/ 4   2/ 4
PANAMA CITY BEAC           68     240/  5/  6 1010.8F
TOWER C                    67     250/  5/  5 1011.4R
28.5N   84.5W              69 71  300/  6/ 10 1010.8    1/ 6   2/ 6

$$
FLZ011-016>038-118-127-128-134-139-239-250100-
NORTH FLORIDA

CITY           SKY/WX    TMP DP  RH WIND       PRES   REMARKS
MARIANNA       CLEAR     75  59  57 SW13      29.80R
TALLAHASSEE    PTCLDY    73  60  63 SW6       29.82R
PERRY          CLEAR     72  61  68 SW6       29.83S
CROSS CITY     CLEAR     70  64  83 W8        29.84R
LAKE CITY      FAIR      72  61  68 E3        29.83R
GAINESVILLE    PTCLDY    74  61  63 E6        29.83R
WILLISTON      CLEAR     79  64  61 CALM      29.82R
PALATKA        FAIR      72  66  83 E6        29.85R
MAYPORT NAS    PTCLDY    66  63  90 N3        29.86R
JACKSONVILLE   PTCLDY    67  64  90 E9        29.84R
JAX NAS        PTCLDY    72  64  76 E8        29.85R
FERNANDINA BEA FAIR      68  64  88 E7        29.85R
ST AUGUSTINE   CLEAR     67  64  90 N6        29.86R FOG
PALM COAST     CLEAR     68  66  94 N6        29.85R

STATION/POSITION SKY/WX   TEMP    WIND        PRES    WAVE   SWELL
                          AIR SEA DIR/SP/G            HT/PER HT/PER
                          (F)     (DEG/KT/KT) (MB)    (FT/S) (FT/S)
SHELL POINT      NOT AVBL
KEATON BEACH               69     250/  8/  9 1010.0R
CEDAR KEY                  68     310/  7/  9 1010.1R
FERNANDINA                 66 68   80/  4/  7 1011.6R
30.7N   81.3W                 65                N/A     5/11   3/11
MAYPORT                    65 67   40/  4/  5 1011.4R
31.4N   80.9W              64 63   40/  6/  8 1010.2    5/10   5/10
ST AUGUSTINE               66 67  350/  9/  9 1011.7R

$$
FLZ040-043>046-052-053-057-058-063-144-250100-
INTERIOR CENTRAL FLORIDA

CITY           SKY/WX    TMP DP  RH WIND       PRES   REMARKS
OCALA          PTCLDY    77  61  57 CALM      29.83R
THE VILLAGES     N/A     75  70  83 MISG      29.73R
LEESBURG       MOCLDY    76  62  62 E9        29.83R
SANFORD        CLEAR     71  62  73 NE6       29.83R
ORLANDO EXEC   CLEAR     73  63  70 E7        29.83R
ORLANDO INTL   PTCLDY    74  62  66 NE7       29.83R
KISSIMMEE      CLEAR     74  63  68 E7        29.83R
WINTER HAVEN   PTCLDY    75  61  61 E8        29.83R
LAKELAND       MOCLDY    77  63  61 E3        29.81R
BARTOW         FAIR      73  63  68 E8        29.82R
OKEECHOBEE     CLEAR     72  63  73 E3        29.81S

$$
FLZ041-047-054-059-064-141-147-250100-
EAST CENTRAL FLORIDA

CITY           SKY/WX    TMP DP  RH WIND       PRES   REMARKS
ORMOND BEACH   CLEAR     68  66  94 N6        29.84R
DAYTONA BEACH  PTCLDY    70  67  90 N8        29.84R
DELAND         CLEAR     70  64  83 NE5       29.84R
NEW SMYRNA BEA CLEAR     70  68  94 N9        29.84R
JFK SPACE CTR  CLEAR     69  68  96 N3        29.82R
TITUSVILLE     PTCLDY    72  70  94 N6        29.83R
CAPE CANAVERAL CLEAR     71  67  87 N5        29.81R
PATRICK AFB    CLEAR     71  68  88 N5        29.82R
MELBOURNE      CLEAR     71  65  81 N5        29.82R
VERO BEACH     CLEAR     71  67  87 N6        29.82R
FT PIERCE      CLEAR     71  66  84 CALM      29.81R

STATION/POSITION SKY/WX   TEMP    WIND        PRES    WAVE   SWELL
                          AIR SEA DIR/SP/G            HT/PER HT/PER
                          (F)     (DEG/KT/KT) (MB)    (FT/S) (FT/S)
TRIDENT PIER               70 71   20/  3/  4 1010.8R
28.4N   80.5W                 73                N/A     3/11   2/11
27.5N   80.2W                 72                N/A     5/ 9   2/11

$$
FLZ050-056-061-142-242-148-248-149-249-151-251-155-255-
160-260-250100-
WEST CENTRAL FLORIDA

CITY           SKY/WX    TMP DP  RH WIND       PRES   REMARKS
CRYSTAL RIVER  MOCLDY    70  64  83 W3        29.83R
INVERNESS      FAIR      73  64  73 W3        29.82R
BROOKSVILLE    CLEAR     70  65  84 W7        29.84R
CLEARWATER AIR MOCLDY    66  64  94 W8        29.83R
ST PETE CLEARW MOCLDY    69  64  84 NW8       29.83R
TAMPA INTL     PTCLDY    73  64  73 W7G20     29.83R
TAMPA EXEC     MOCLDY    75  64  69 W3        29.83R
PLANT CITY     MOCLDY    75  64  69 CALM      29.83R
MACDILL AFB    PTCLDY    69  68  96 NW7       29.83R
PETER O KNIGHT MOCLDY    73  68  83 W6        29.83R
ST PETERSBURG  MOCLDY    71  65  81 N6        29.81R
SARASOTA       CLEAR     70  65  84 NW9       29.82R
VENICE         FAIR      70  68  94 NW10      29.83R

STATION/POSITION SKY/WX   TEMP    WIND        PRES    WAVE   SWELL
                          AIR SEA DIR/SP/G            HT/PER HT/PER
                          (F)     (DEG/KT/KT) (MB)    (FT/S) (FT/S)
27.3N   84.2W                 71                N/A     2/ 4
CLEARWATER BEACH           68     310/ 11/ 12 1010.5R
MIDDLE TAMPA BAY           69     320/ 12/ 13 1010.2R
VENICE                     70 72  320/ 13/ 14 1009.6R

$$
FLZ066-069-070-075>078-162-262-165-265-250100-
SOUTHWEST FLORIDA AND KEYS

CITY           SKY/WX    TMP DP  RH WIND       PRES   REMARKS
PUNTA GORDA    PTCLDY    73  66  78 W8        29.82R
FT MYERS       CLEAR     75  67  76 W8        29.80R
SOUTHWEST INTL CLEAR     76  65  68 W8        29.80R
NAPLES         CLEAR     71  68  90 W7        29.80R
MARCO ISLAND   CLEAR     72  66  83 W6        29.81R
MARATHON       CLEAR     73  67  81 W7        29.81R
KEY WEST NAS   MOCLDY    71  65  81 NW5       29.82R
KEY WEST INTL  MOCLDY    73  67  81 NW7       29.82S

STATION/POSITION SKY/WX   TEMP    WIND        PRES    WAVE   SWELL
                          AIR SEA DIR/SP/G            HT/PER HT/PER
                          (F)     (DEG/KT/KT) (MB)    (FT/S) (FT/S)
NAPLES                        74              1009.0
26.0N   85.6W              73 76   10/  6/  8 1010.8R   2/ 5   2/ 5
DRY TORTUGAS               71     360/  5/  5 1010.1R
SAND KEY                   72     300/  5/  7 1010.3R
LONG KEY                   72 75  290/  7/  9 1009.5R

$$
FLZ067-068-071>074-168-172>174-250100-
SOUTHEAST FLORIDA

CITY           SKY/WX    TMP DP  RH WIND       PRES   REMARKS
W PALM BEACH   PTCLDY    75  64  68 N9        29.80R
BOCA RATON       N/A     75  68  78 NE8       29.80R
FT LAUDER-EXEC CLEAR     77  66  68 NE7       29.79R
FT LAUDERDALE  MOCLDY    75  67  76 E5        29.79R
POMPANO BEACH  PTCLDY    77  68  73 NE10      29.79R
PEMBROKE PINES MOCLDY    76  63  64 E5        29.81R
OPA LOCKA      PTCLDY    75  65  70 E7        29.80R
MIAMI          PTCLDY    75  65  70 VRB7      29.80R
WEST KENDALL   CLEAR     76  66  71 SE6       29.79R
HOMESTEAD      PTCLDY    72  72  99 S6        29.80R

STATION/POSITION SKY/WX   TEMP    WIND        PRES    WAVE   SWELL
                          AIR SEA DIR/SP/G            HT/PER HT/PER
                          (F)     (DEG/KT/KT) (MB)    (FT/S) (FT/S)
PORT EVERGLADES            75     130/  2/  2 1008.7R
VIRGINIA KEY               74     170/  1/  3 1009.3R
LAKE WORTH                         20/ 13/ 15   N/A
FOWEY ROCKS                74 74  200/  8/  9 1009.6R
SETTLEMENT POINT           74      20/ 10/ 11 1009.0R

$$




USA.gov is the U.S. government's official web portal to all federal, state and local government web resources and services.